Waarnemingen

Advertentie
Mijn weer
Bierset/Liege, België (6478): temperatuur & dauwpunt: 15.06.2019 01:00:00 - 21.06.2019 01:00:00 (CEST)Bierset/Liege, België (6478): windsnelheid & windstoten: 15.06.2019 01:00:00 - 21.06.2019 01:00:00 (CEST)Bierset/Liege, België (6478): windrichting: 15.06.2019 01:00:00 - 21.06.2019 01:00:00 (CEST)Bierset/Liege, België (6478): luchtdruk: 15.06.2019 01:00:00 - 21.06.2019 01:00:00 (CEST)Bierset/Liege, België (6478): zicht: 15.06.2019 01:00:00 - 21.06.2019 01:00:00 (CEST)
Datum & Tijd tt [°C] td [°C] ff [km/u] ff [kn] fx [km/u] fx [kn] dd ppp [hPa] vv [km]
21.06.2019 01:00:00 - - - - - - - - -
21.06.2019 00:00:00 13,7 8,7 11 6 18 10 W 1017,2 10
20.06.2019 23:00:00 14,2 9,5 11 6 - - W 1016,7 10
20.06.2019 22:00:00 16,1 10,0 11 6 22 12 W 1016,0 10
20.06.2019 21:00:00 18,0 10,8 13 7 29 16 W 1015,2 10
20.06.2019 20:00:00 19,2 11,7 15 8 - - W 1014,5 10
20.06.2019 19:00:00 20,1 10,7 22 12 32 18 W 1013,8 10
20.06.2019 18:00:00 19,3 11,8 18 10 29 16 W 1013,5 10
20.06.2019 17:00:00 20,3 12,3 16 9 - - W 1013,4 10
20.06.2019 16:00:00 18,5 13,1 16 9 25 14 ZW 1013,4 10
20.06.2019 15:00:00 18,2 13,5 15 8 22 12 WZW 1013,5 10
20.06.2019 14:00:00 16,3 14,1 13 7 - - W 1013,8 6
20.06.2019 13:00:00 16,6 14,1 13 7 22 12 W 1013,4 8
20.06.2019 12:00:00 17,3 13,0 13 7 22 12 WZW 1012,9 10
20.06.2019 11:00:00 17,3 13,1 18 10 - - ZW 1012,7 15
20.06.2019 10:00:00 16,8 13,4 15 8 22 12 WZW 1012,5 10
20.06.2019 09:00:00 16,6 13,5 16 9 22 12 ZW 1012,2 10
20.06.2019 08:00:00 15,4 13,5 13 7 - - ZZW 1012,2 5
20.06.2019 07:00:00 14,8 13,6 15 8 22 12 ZW 1012,1 4,2
20.06.2019 06:00:00 14,3 13,5 11 6 22 12 ZW 1011,6 4,0
20.06.2019 05:00:00 14,8 13,6 16 9 - - ZW 1011,3 8
20.06.2019 04:00:00 15,2 14,2 18 10 25 14 ZW 1011,0 6
20.06.2019 03:00:00 15,5 14,6 18 10 25 14 ZW 1010,5 6
20.06.2019 02:00:00 15,5 14,5 16 9 - - WZW 1010,4 10
20.06.2019 01:00:00 16,5 14,9 18 10 25 14 ZW 1010,1 10
20.06.2019 00:00:00 16,6 15,4 15 8 25 14 Z 1009,6 10
19.06.2019 23:00:00 17,3 16,1 15 8 - - ZW 1009,7 6
19.06.2019 22:00:00 18,5 15,4 13 7 25 14 Z 1008,9 10
19.06.2019 21:00:00 18,4 15,5 9 5 22 12 Z 1008,7 10
19.06.2019 20:00:00 18,0 16,3 11 6 - - ZZO 1008,8 10
19.06.2019 19:00:00 17,0 15,0 18 10 47 25 W 1008,6 18
19.06.2019 18:00:00 20,0 16,4 18 10 40 21 W 1007,4 10
19.06.2019 17:00:00 26,0 12,7 21 11 - - ZZW 1006,6 10
19.06.2019 16:00:00 26,9 13,4 21 11 47 25 Z 1007,0 10
19.06.2019 15:00:00 25,0 13,2 16 9 32 18 Z 1007,7 10
19.06.2019 14:00:00 23,6 12,2 22 12 - - ZZW 1008,5 10
19.06.2019 13:00:00 24,0 14,6 21 11 36 19 ZW 1008,4 10
19.06.2019 12:00:00 25,8 16,1 18 10 40 21 ZW 1007,7 10
19.06.2019 11:00:00 24,8 15,3 18 10 - - ZZW 1007,7 10
19.06.2019 10:00:00 23,5 14,6 22 12 29 16 ZZW 1007,5 10
19.06.2019 09:00:00 21,7 15,0 15 8 29 16 ZZW 1007,4 10
19.06.2019 08:00:00 21,6 14,0 13 7 - - ZO 1006,5 10
19.06.2019 07:00:00 19,7 13,6 16 9 22 12 ZO 1007,1 10
19.06.2019 06:00:00 19,0 13,3 16 9 40 21 ZO 1008,0 10
19.06.2019 05:00:00 19,0 13,1 13 7 - - ZO 1008,6 10
19.06.2019 04:00:00 19,1 13,2 15 8 32 18 ZO 1009,0 10
19.06.2019 03:00:00 19,5 14,2 11 6 36 19 ZO 1009,6 30
19.06.2019 02:00:00 20,2 15,5 13 7 - - ZO 1009,9 10
19.06.2019 01:00:00 21,1 15,0 8 4 14 8 ZO 1010,4 10
19.06.2019 00:00:00 22,5 15,0 8 4 11 6 ZZO 1010,9 10
18.06.2019 23:00:00 23,4 14,5 5 3 - - ZO 1011,3 10
18.06.2019 22:00:00 23,9 14,0 9 5 29 16 OZO 1011,2 10
18.06.2019 21:00:00 24,4 14,0 5 3 14 8 O 1011,1 10
18.06.2019 20:00:00 25,4 15,8 11 6 - - NO 1011,3 10
18.06.2019 19:00:00 25,6 14,9 11 6 18 10 NNO 1011,5 10
18.06.2019 18:00:00 25,7 14,6 8 4 14 8 NO 1012,1 10
18.06.2019 17:00:00 25,2 14,6 8 4 - - N 1012,6 10
18.06.2019 16:00:00 25,3 13,7 5 3 14 8 N 1013,1 10
18.06.2019 15:00:00 25,1 13,5 5 3 18 10 NNW 1013,5 10
18.06.2019 14:00:00 24,8 13,1 9 5 - - NW 1013,7 10
18.06.2019 13:00:00 24,6 13,6 9 5 18 10 N 1014,1 10
18.06.2019 12:00:00 24,1 15,0 8 4 22 12 NNO 1014,2 10
18.06.2019 11:00:00 23,4 14,6 8 4 - - N 1014,7 10
18.06.2019 10:00:00 23,0 14,5 4 2 7 4 - 1015,2 10
18.06.2019 09:00:00 20,2 15,0 5 3 14 8 ZZO 1015,5 10
18.06.2019 08:00:00 17,7 13,7 8 4 - - ZZO 1015,8 10
18.06.2019 07:00:00 15,7 13,3 9 5 14 8 ZO 1015,9 10
18.06.2019 06:00:00 15,6 13,4 5 3 14 8 ZZO 1015,9 10
18.06.2019 05:00:00 15,6 13,6 8 4 - - ZO 1016,1 10
18.06.2019 04:00:00 16,6 12,9 4 2 7 4 - 1016,3 10
18.06.2019 03:00:00 16,2 12,6 5 3 11 6 WZW 1016,7 10
18.06.2019 02:00:00 17,6 13,4 5 3 - - WZW 1016,8 10
18.06.2019 01:00:00 19,7 11,9 0 0 4 2 N 1016,9 10
18.06.2019 00:00:00 19,2 13,1 2 1 7 4 - 1016,9 10
17.06.2019 23:00:00 19,8 13,3 5 3 - - N 1016,8 10
17.06.2019 22:00:00 20,8 14,0 5 3 11 6 N 1016,8 10
17.06.2019 21:00:00 22,8 13,8 8 4 14 8 N 1016,7 10
17.06.2019 20:00:00 24,1 13,8 8 4 - - NNW 1016,8 10
17.06.2019 19:00:00 24,4 12,7 8 4 18 10 N 1017,1 10
17.06.2019 18:00:00 24,4 12,8 13 7 18 10 NNO 1017,3 10
17.06.2019 17:00:00 23,7 12,4 4 2 - - - 1017,8 10
17.06.2019 16:00:00 23,3 12,8 8 4 14 8 NO 1018,2 10
17.06.2019 15:00:00 24,4 10,5 8 4 22 12 ZW 1018,6 10
17.06.2019 14:00:00 23,4 11,3 9 5 - - - 1019,2 10
17.06.2019 13:00:00 23,5 11,3 9 5 22 12 - 1019,7 10
17.06.2019 12:00:00 22,5 10,1 11 6 22 12 ZW 1020,1 30
17.06.2019 11:00:00 21,6 11,6 11 6 - - Z 1020,6 10
17.06.2019 10:00:00 20,4 12,0 11 6 29 16 Z 1020,9 10
17.06.2019 09:00:00 - - - - - - - 1021,6 10
17.06.2019 08:00:00 - - 11 6 - - ZO 1021,6 10
17.06.2019 07:00:00 14,2 11,1 11 6 32 18 ZO 1021,3 10
17.06.2019 06:00:00 13,7 11,2 13 7 32 18 ZO 1021,4 10
17.06.2019 05:00:00 13,8 11,7 13 7 - - ZO 1021,5 10
17.06.2019 04:00:00 13,9 12,3 11 6 25 14 ZO 1021,7 10
17.06.2019 03:00:00 14,9 12,8 11 6 14 8 ZO 1021,8 10
17.06.2019 02:00:00 15,3 12,9 7 4 - - ZO 1021,9 30
17.06.2019 01:00:00 16,5 12,5 4 2 14 8 - 1021,7 10
17.06.2019 00:00:00 16,3 12,4 4 2 4 2 ZZO 1021,8 10
16.06.2019 23:00:00 16,6 12,1 2 1 - - N 1021,8 10
16.06.2019 22:00:00 17,8 12,9 8 4 18 10 NW 1021,4 10
16.06.2019 21:00:00 18,6 11,6 4 2 14 8 - 1021,1 10
16.06.2019 20:00:00 19,4 11,9 9 5 - - WZW 1021,1 10
16.06.2019 19:00:00 19,5 10,6 11 6 14 8 W 1021,0 10
16.06.2019 18:00:00 20,5 11,5 11 6 25 14 W 1020,8 10
16.06.2019 17:00:00 20,8 10,8 15 8 - - W 1021,0 10
16.06.2019 16:00:00 19,7 11,0 15 8 29 16 WZW 1021,2 10
16.06.2019 15:00:00 18,9 10,7 16 9 25 14 ZW 1021,2 10
16.06.2019 14:00:00 18,1 11,2 18 10 - - ZW 1021,2 10
16.06.2019 13:00:00 17,0 11,6 15 8 25 14 WZW 1021,5 10
16.06.2019 12:00:00 17,5 11,8 16 9 29 16 WZW 1021,2 10
16.06.2019 11:00:00 17,0 10,8 22 12 - - ZW 1020,8 10
16.06.2019 10:00:00 17,3 11,1 22 12 32 18 ZW 1020,5 10
16.06.2019 09:00:00 15,8 10,9 24 13 32 18 WZW 1020,5 10
16.06.2019 08:00:00 14,8 10,3 16 9 - - ZW 1020,1 10
16.06.2019 07:00:00 14,0 10,1 13 7 22 12 ZZW 1019,6 10
16.06.2019 06:00:00 13,8 9,7 11 6 25 14 Z 1019,5 10
16.06.2019 05:00:00 14,4 9,9 13 7 - - ZZW 1019,1 10
16.06.2019 04:00:00 14,9 9,7 13 7 22 12 ZZW 1018,8 10
16.06.2019 03:00:00 15,5 10,0 13 7 22 12 ZW 1018,7 10
16.06.2019 02:00:00 15,8 9,6 9 5 - - Z 1018,6 10
16.06.2019 01:00:00 14,7 10,4 5 3 14 8 WZW 1018,6 10
16.06.2019 00:00:00 15,4 10,4 9 5 14 8 WNW 1017,7 10
15.06.2019 23:00:00 15,9 11,0 9 5 - - WZW 1016,9 10
15.06.2019 22:00:00 17,5 11,4 8 4 14 8 W 1016,3 10
15.06.2019 21:00:00 19,3 11,9 9 5 18 10 W 1015,9 10
15.06.2019 20:00:00 19,5 11,2 13 7 - - W 1015,7 10
15.06.2019 19:00:00 21,4 11,3 15 8 29 16 WZW 1015,3 10
15.06.2019 18:00:00 20,8 10,9 18 10 29 16 WZW 1015,4 10
15.06.2019 17:00:00 20,7 10,1 16 9 - - ZW 1015,4 10
15.06.2019 16:00:00 21,8 11,8 9 5 25 14 W 1015,2 10
15.06.2019 15:00:00 21,0 12,3 18 10 36 19 W 1015,4 10
15.06.2019 14:00:00 20,1 12,2 24 13 - - W 1015,4 10
15.06.2019 13:00:00 19,5 15,2 26 14 36 19 WZW 1014,9 10
15.06.2019 12:00:00 17,0 14,9 18 10 25 14 WZW 1014,5 10
15.06.2019 11:00:00 15,8 14,7 13 7 - - ZW 1014,1 9
15.06.2019 10:00:00 15,4 13,6 16 9 29 16 WZW 1013,4 7
15.06.2019 09:00:00 15,0 13,8 22 12 32 18 WZW 1012,9 15
15.06.2019 08:00:00 14,1 13,4 22 12 - - W 1011,8 7
15.06.2019 07:00:00 15,6 14,6 13 7 22 12 Z 1010,9 8
15.06.2019 06:00:00 15,4 14,7 9 5 18 10 Z 1011,2 6
15.06.2019 05:00:00 15,6 14,9 15 8 - - ZW 1011,2 3,3
15.06.2019 04:00:00 16,0 15,4 11 6 18 10 Z 1010,9 6
15.06.2019 03:00:00 16,3 15,4 9 5 22 12 ZZW 1011,0 6
15.06.2019 02:00:00 16,9 15,6 4 2 - - Z 1010,5 19
15.06.2019 01:00:00 17,1 16,0 11 6 14 8 ZO 1012,1 10

tt = temperatuur
td = dauwpunt
ff = windsnelheid
fx = windstoten
dd = windrichting
ppp = luchtdruk
vv = zicht

Weerstations in de omgeving